{"data":{"norad_id":66879,"intl_designator":"2025-283B","name":"STARLINK-35749","alt_names":[],"object_type":"PAYLOAD","status":"ACTIVE","operator":null,"country":"US","launch_date":"2025-12-04","launch_site_code":"AFWTR","launch_vehicle":null,"mission":null,"orbit_class":"UNKNOWN","rcs_meters":null,"size_class":null,"mass_kg":null,"dimensions":null,"purposes":["comms"],"wikipedia_slug":null,"has_3d_model":false,"image_url":null,"decayed_at":null,"tle_current":{"epoch":"2026-09-20T12:39:43.603200Z","epoch_age_seconds":82102,"freshness":"FRESH","line1":"1 66879U 25283B   26263.52758800  .00019041  00000+0  57330-3 0  9995","line2":"2 66879  53.1576 197.8215 0000270 183.9388 176.1613 15.34396792 45695","mean_motion":15.34396792,"eccentricity":2.7e-5,"inclination_deg":53.1576,"raan_deg":197.8215,"arg_perigee_deg":183.9388,"mean_anomaly_deg":176.1613,"bstar":0.0005733,"rev_number":4569,"period_min":93.847954291083,"perigee_km":462.52807213185,"apogee_km":462.8974780197,"semimajor_km":6840.8497750758,"source":"CELESTRAK","updated_at":"2026-09-21T09:00:36.032128Z"}}}